Location: Unspecified
(48.7670°N, 0.0000°E)
Time: 04:27:45
(UTC+00:00)

Vanguard 2 Rocket - Pass Details

Date: 08 October 2020
Orbit: 554 x 3326 km, 32.9° (Epoch: 26 October)

Event Time Altitude Azimuth Distance (km) Brightness Sun altitude
Exits shadow 04:16:44 23° 247° (WSW) 4,786 9.9 -19.4°
Maximum altitude 04:27:01 39° 201° (SSW) 4,276 10.0 -17.7°
Drops below altitude 10° 04:44:19 10° 142° (SE) 6,082 11.5 -14.9°
Sets 04:49:10 0° 135° (SE) 6,890 12.0 -14.1°
